Deadhorse, AK

8:33 PM AKDT on March 22, 2017 (GMT -0800)
Deadhorse

Weather History for PASC - October, 2011

Change the Weather History Date:

Wednesday, October 19, 2011

  Actual Average Record
Temperature  
Mean Temperature 27 °F -  
Max Temperature 30 °F 15 °F 34 °F (2004)
Min Temperature 24 °F 3 °F -24 °F (2001)
Degree Days  
Heating Degree Days 38    
Moisture  
Dew Point 26 °F    
Average Humidity 94    
Maximum Humidity 100    
Minimum Humidity 85    
Precipitation  
Precipitation 0.00 in - - ()
Sea Level Pressure  
Sea Level Pressure 29.76 in    
Wind  
Wind Speed 7 mph (ENE)    
Max Wind Speed 20 mph    
Max Gust Speed -    
Visibility 6 miles    
Events Snow    
Averages and records for this station are not official NWS values.
T = Trace of Precipitation, MM = Missing Value Source: NWS Daily Summary

Daily Weather History Graph

Daily Weather History Graph

Search for Another Location

Airport or City:

Trip Planner

Search our weather history database for the weather conditions in past years. The results will help you decide how hot, cold, wet, or windy it might be!

Date:

Astronomy

Oct. 19, 2011 Rise Set
Actual Time 9:25 AM AKDT 5:50 PM AKDT
Civil Twilight 8:19 AM AKDT 6:56 PM AKDT
Nautical Twilight 7:08 AM AKDT 8:07 PM AKDT
Astronomical Twilight 5:55 AM AKDT 9:19 PM AKDT
Moon 10:01 PM AKDT (10/19) 5:57 PM AKDT (10/19)
Length of Visible Light 10h 36m
Length of Day
8h 25m
Waning Gibbous, 53% of the Moon is Illuminated
Oct 19
Waning Gibbous
Oct 19
Last Quarter
Oct 26
New
Nov 2
First Quarter
Nov 10
Full

Hourly Weather History & Observations

Time (AKDT) Temp. Windchill Dew Point Humidity Pressure Visibility Wind Dir Wind Speed Gust Speed Precip Events Conditions
12:53 AM 24.1 °F 16.0 °F 23.0 °F 96% 29.78 in 1.2 mi ESE 6.9 mph - N/A   Overcast
1:22 AM 24.8 °F 16.9 °F 23.0 °F 93% 29.77 in 4.0 mi East 6.9 mph - N/A   Overcast
1:53 AM 24.1 °F 18.2 °F 23.0 °F 96% 29.78 in 9.0 mi SE 4.6 mph - N/A   Overcast
2:23 AM 24.8 °F 20.5 °F 23.0 °F 93% 29.76 in 2.5 mi ESE 3.5 mph - N/A   Overcast
2:53 AM 24.1 °F - 23.0 °F 96% 29.77 in 1.2 mi Calm Calm - N/A   Overcast
3:39 AM 24.8 °F - 23.0 °F 93% 29.76 in 4.0 mi Calm Calm - N/A   Overcast
3:53 AM 24.1 °F - 24.1 °F 100% 29.77 in 1.8 mi Calm Calm - N/A   Overcast
4:09 AM 24.8 °F - 23.0 °F 93% 29.77 in 4.0 mi Calm Calm - N/A   Overcast
4:53 AM 25.0 °F - 24.1 °F 96% 29.77 in 4.0 mi Calm Calm - 0.00 in Snow Light Snow
5:53 AM 26.1 °F 21.9 °F 24.1 °F 92% 29.76 in 8.0 mi NW 3.5 mph - 0.00 in Snow Light Snow
6:00 AM 26.6 °F 22.6 °F 24.8 °F 93% 29.76 in 9.0 mi NW 3.5 mph - 0.00 in Snow Light Snow
6:53 AM 26.1 °F 20.5 °F 24.1 °F 92% 29.76 in 9.0 mi NW 4.6 mph - 0.00 in Snow Light Snow
7:00 AM 26.6 °F 21.2 °F 24.8 °F 93% 29.75 in 9.0 mi NW 4.6 mph - 0.00 in Snow Light Snow
7:26 AM 26.6 °F 20.0 °F 24.8 °F 93% 29.75 in 9.0 mi NW 5.8 mph - 0.00 in Snow Light Snow
7:34 AM 26.6 °F 20.0 °F 24.8 °F 93% 29.75 in 4.0 mi NW 5.8 mph - 0.00 in Snow Light Snow
7:53 AM 26.1 °F 20.5 °F 25.0 °F 96% 29.75 in 3.0 mi WNW 4.6 mph - 0.00 in Snow Light Snow
8:16 AM 26.6 °F 22.6 °F 26.6 °F 100% 29.75 in 2.0 mi NNW 3.5 mph - 0.00 in Snow Light Snow
8:53 AM 30.0 °F 21.7 °F 28.0 °F 92% 29.74 in 3.0 mi ENE 9.2 mph - 0.00 in Snow Light Snow
9:53 AM 30.0 °F 21.1 °F 28.0 °F 92% 29.74 in 3.0 mi ENE 10.4 mph - 0.00 in Snow Light Snow
10:53 AM 30.0 °F 21.1 °F 28.0 °F 92% 29.75 in 3.0 mi ENE 10.4 mph - 0.00 in   Overcast
11:53 AM 30.0 °F 20.5 °F 28.9 °F 96% 29.75 in 3.0 mi East 11.5 mph - N/A Snow Light Snow
12:53 PM 30.0 °F 21.1 °F 28.9 °F 96% 29.75 in 6.0 mi ENE 10.4 mph - N/A   Overcast
1:53 PM 30.0 °F 19.5 °F 28.0 °F 92% 29.75 in 10.0 mi East 13.8 mph - N/A   Overcast
2:00 PM 30.2 °F 19.3 °F 28.4 °F 93% 29.75 in 10.0 mi East 15.0 mph - N/A   Overcast
2:53 PM 28.9 °F 17.7 °F 28.0 °F 96% 29.75 in 10.0 mi East 15.0 mph - N/A   Overcast
3:53 PM 28.9 °F 17.3 °F 28.0 °F 96% 29.75 in 10.0 mi East 16.1 mph - N/A   Overcast
4:53 PM 28.0 °F 18.1 °F 27.0 °F 96% 29.75 in 10.0 mi East 11.5 mph - N/A   Overcast
5:53 PM 28.0 °F 14.9 °F 25.0 °F 88% 29.75 in 10.0 mi ESE 19.6 mph - N/A   Overcast
6:53 PM 27.0 °F 15.2 °F 25.0 °F 92% 29.76 in 10.0 mi East 15.0 mph - N/A   Overcast
7:53 PM 27.0 °F 18.0 °F 26.1 °F 96% 29.75 in 7.0 mi East 9.2 mph - 0.00 in Snow Light Snow
8:53 PM 28.0 °F 16.5 °F 25.0 °F 88% 29.76 in 10.0 mi East 15.0 mph - N/A   Overcast
9:53 PM 28.0 °F 18.6 °F 26.1 °F 92% 29.77 in 10.0 mi East 10.4 mph - N/A   Overcast
10:53 PM 28.9 °F 19.8 °F 25.0 °F 85% 29.76 in 10.0 mi East 10.4 mph - N/A   Overcast
11:53 PM 28.9 °F 21.9 °F 26.1 °F 89% 29.75 in 10.0 mi East 6.9 mph - N/A   Overcast